[[{"header":{"parameterUnit":"m.s-1","parameterCategory":1,"la1":30.2991,"la2":30.254,"lo1":-89.0895,"lo2":-89.0444,"dy":0.0017,"dx":0.0017,"nx":28,"ny":28,"refTime":"2024-06-29T09:00:00:Z","depth":0,"parameterNumber":2,"parameterNumberName":"U-component_of_WINDS"},"data":[0,0,0,0,0,0,0,0,0,0,0,0,0,0,0,0,0,0,0,0,0,0,0,0,0,0,0,0,0,0,0,0,0,0,0,0,0,0,0,0,0,0,0,0,0,0,0,0,0,0,0,0,0,0,0,0,0,0,1.3203,1.3204,0,1.3321,1.3323,1.3324,1.3337,1.3335,1.3334,1.3333,1.3455,1.3459,1.3464,0,0,0,0,0,0,0,0,0,0,0,0,0,1.2986,1.299,1.3203,1.3204,1.3206,1.3321,1.3323,1.3324,1.3337,1.3335,1.3334,1.3332,1.3454,1.3459,1.3464,0,0,0,0,0,0,0,0,0,0,0,0,0,1.309,1.2991,1.3202,1.3226,1.3229,1.3321,1.3323,1.3325,1.3337,1.3335,1.3333,1.3332,1.3452,1.3458,1.3465,1.3542,0,0,1.3485,1.3488,0,0,0,0,0,0,0,0,1.3084,1.3098,1.3221,1.3224,1.3228,1.3312,1.3291,1.3398,1.3338,1.3296,1.3333,1.3331,1.3409,1.3419,1.3445,1.3547,1.3553,1.3485,1.3489,1.3492,1.3494,0,0,0,0,0,0,0,1.3076,1.3093,1.325,1.3222,1.3227,1.323,1.3243,1.3311,1.3361,1.33,1.3301,1.3315,1.3411,1.3439,1.3448,1.3554,1.3485,1.3491,1.3495,1.3498,1.3724,1.3726,0,0,0,0,0,0,1.3065,1.3086,1.3246,1.3253,1.315,1.3235,1.325,1.3287,1.3361,1.337,1.3316,1.3315,1.3429,1.3441,1.3453,1.3546,1.3492,1.3498,1.3502,1.3722,1.3724,1.3726,0,0,0,0,0,0,1.306,1.3079,1.3241,1.317,1.3191,1.3241,1.3283,1.329,1.3319,1.3373,1.3382,1.3336,1.3428,1.3443,1.3519,1.3551,1.3501,1.3507,1.3719,1.3722,1.3725,1.3735,0,0,0,0,0,0,1.3054,1.3077,1.3107,1.3171,1.3195,1.3306,1.3285,1.3294,1.333,1.3329,1.3394,1.3403,1.3427,1.3509,1.3525,1.3559,1.3512,1.3716,1.3721,1.3724,1.3732,1.3738,1.3743,0,0,0,0,0,1.3046,1.3106,1.3109,1.3128,1.3233,1.3308,1.3321,1.3348,1.3332,1.3363,1.3397,1.3401,1.3544,1.3517,1.3535,1.3571,1.3715,1.3719,1.3724,1.3729,1.3737,1.3743,0,0,0,0,0,0,1.3046,1.3115,1.3119,1.3201,1.3248,1.3309,1.3349,1.3355,1.3408,1.3406,1.3437,1.3451,1.3525,1.3556,1.3524,1.3648,1.3628,1.3636,1.3626,1.3633,1.3638,1.3629,1.3518,0,0,0,0,0,1.3055,1.311,1.3167,1.3234,1.3257,1.3299,1.3332,1.3349,1.3399,1.3419,1.3459,1.3508,1.3564,1.36,1.3655,1.3736,1.375,1.377,1.3775,1.378,1.3787,1.383,1.3839,1.3741,1.3741,1.3741,0,0,1.3075,1.3119,1.3152,1.3235,1.3273,1.3328,1.3316,1.3375,1.3416,1.3428,1.3502,1.3533,1.3589,1.3667,1.3704,1.3695,1.3816,1.3786,1.3789,1.3793,1.3836,1.3845,1.3853,1.3745,1.3744,1.3744,0,0,1.314,1.3179,1.3238,1.3277,1.3335,1.3362,1.3376,1.3436,1.3457,1.3531,1.3541,1.359,1.3686,1.3726,1.3758,1.3835,1.384,1.3852,1.3881,1.3923,1.3931,1.3938,1.3964,1.3974,1.3859,1.3859,1.3859,0,1.3157,1.3241,1.3268,1.3327,1.3362,1.3375,1.3434,1.3471,1.3544,1.3568,1.3557,1.3676,1.3715,1.3802,1.3821,1.3847,1.3863,1.3845,1.3928,1.3935,1.3942,1.3967,1.3977,1.386,1.386,1.386,1.386,0,1.3259,1.3317,1.3357,1.3427,1.3467,1.3526,1.3561,1.3598,1.3611,1.3639,1.3713,1.376,1.3824,1.3845,1.3859,1.3934,1.3926,1.3921,1.3901,1.3952,1.3976,1.3986,1.3862,1.3861,1.3861,1.3861,0,0,1.3327,1.341,1.3424,1.3455,1.3519,1.3564,1.3623,1.3685,1.3716,1.3765,1.3815,1.3895,1.389,1.3927,1.3944,1.3982,1.4038,1.3972,1.3974,1.3981,1.4122,1.4125,1.4136,1.4041,1.4043,1.4045,1.4117,0,1.3398,1.3503,1.3528,1.3618,1.3671,1.3683,1.3734,1.3779,1.3806,1.3855,1.3885,1.3941,1.3931,1.3952,1.399,1.4023,1.4066,1.4018,1.4087,1.4089,1.4072,1.4149,1.4153,1.4218,1.4127,1.4128,1.413,0,1.3495,1.3546,1.3641,1.3697,1.372,1.3765,1.3823,1.3869,1.392,1.3937,1.3977,1.3991,1.4051,1.4028,1.4112,1.4079,1.4108,1.4129,1.4132,1.4139,1.4112,1.4157,1.424,1.4249,1.4145,1.4144,1.4143,0,1.3534,1.3626,1.3694,1.3721,1.3788,1.3819,1.3849,1.3897,1.3932,1.3982,1.4005,1.4062,1.4093,1.4136,1.4165,1.4145,1.4246,1.4225,1.4261,1.426,1.4281,1.4279,1.4369,1.4301,1.4301,1.4301,1.4301,0,1.361,1.3668,1.3712,1.3754,1.3818,1.3846,1.3909,1.3938,1.3981,1.4029,1.4043,1.4087,1.4122,1.417,1.4193,1.4258,1.4272,1.4287,1.4292,1.4285,1.4283,1.4305,1.4301,1.4304,1.4303,1.4303,1.4302,0,1.3664,1.3697,1.3772,1.3829,1.3844,1.3889,1.3937,1.3978,1.4005,1.4065,1.408,1.4123,1.4181,1.4213,1.4286,1.4301,1.4373,1.4376,1.4356,1.4358,1.4391,1.4387,1.4497,1.4513,1.4435,1.4436,1.4437,0,1.3711,1.3755,1.3816,1.3848,1.3878,1.3931,1.3966,1.3995,1.4031,1.409,1.4124,1.4182,1.423,1.4322,1.4359,1.4415,1.4419,1.4453,1.4427,1.4418,1.4418,1.4415,1.4419,1.4458,1.4459,1.4459,1.446,0,1.3789,1.3802,1.3852,1.3908,1.3949,1.3995,1.4039,1.4065,1.4101,1.4141,1.42,1.4237,1.4311,1.4368,1.4426,1.4456,1.4464,1.4467,1.4478,1.4472,1.4457,1.4464,1.4367,1.4465,1.4464,1.4464,1.4464,1.4463,1.384,1.3879,1.3927,1.3982,1.4019,1.406,1.41,1.4132,1.4182,1.4243,1.4257,1.4319,1.4367,1.4446,1.4477,1.4525,1.4519,1.4535,1.4539,1.4542,1.4543,1.445,1.4536,1.4536,1.4536,1.4536,1.4536,0,1.3917,1.3949,1.3999,1.4061,1.4104,1.4107,1.4156,1.4191,1.4245,1.4289,1.4336,1.4403,1.4458,1.4499,1.4556,1.4586,1.4591,1.46,1.4598,1.4604,1.4546,1.453,1.4595,1.4595,1.4595,1.4595,1.4595,1.4595,1.3963,1.4028,1.4047,1.4131,1.4162,1.4222,1.425,1.4288,1.4323,1.4396,1.4442,1.4468,1.4511,1.457,1.4621,1.4631,1.4651,1.466,1.467,1.4615,1.4609,1.4603,1.4588,1.4664,1.4664,1.4725,1.4725,1.4726]},{"header":{"parameterUnit":"m.s-1","parameterCategory":1,"la1":30.2991,"la2":30.254,"lo1":-89.0895,"lo2":-89.0444,"dy":0.0017,"dx":0.0017,"nx":28,"ny":28,"refTime":"2024-06-29T09:00:00:Z","depth":0,"parameterNumber":3,"parameterNumberName":"V-component_of_WINDS"},"data":[0,0,0,0,0,0,0,0,0,0,0,0,0,0,0,0,0,0,0,0,0,0,0,0,0,0,0,0,0,0,0,0,0,0,0,0,0,0,0,0,0,0,0,0,0,0,0,0,0,0,0,0,0,0,0,0,0,0,5.8661,5.8661,0,5.8701,5.8701,5.8701,5.8627,5.8625,5.8622,5.862,5.8655,5.8658,5.8661,0,0,0,0,0,0,0,0,0,0,0,0,0,5.8514,5.8517,5.8661,5.8661,5.8662,5.8701,5.8701,5.8702,5.8628,5.8625,5.8622,5.8619,5.8654,5.8658,5.8662,0,0,0,0,0,0,0,0,0,0,0,0,0,5.8568,5.8518,5.8661,5.863,5.8627,5.87,5.8701,5.8702,5.8628,5.8625,5.8621,5.8617,5.8653,5.8658,5.8662,5.8766,0,0,5.8677,5.8679,0,0,0,0,0,0,0,0,5.8565,5.8574,5.8634,5.8632,5.8629,5.8655,5.8662,5.8723,5.8629,5.8628,5.862,5.8616,5.8658,5.8662,5.8677,5.8767,5.8769,5.8678,5.868,5.8683,5.8684,0,0,0,0,0,0,0,5.8562,5.8571,5.8676,5.8635,5.8632,5.8612,5.8615,5.8673,5.8663,5.8628,5.8622,5.8628,5.8656,5.8673,5.8678,5.8769,5.8677,5.8682,5.8685,5.8687,5.8945,5.8949,0,0,0,0,0,0,5.8563,5.8569,5.8675,5.8677,5.8588,5.8617,5.8621,5.8651,5.8662,5.866,5.8631,5.8625,5.8666,5.8672,5.8679,5.88,5.8682,5.8687,5.869,5.8941,5.8946,5.8951,0,0,0,0,0,0,5.856,5.8573,5.8673,5.8622,5.8633,5.8624,5.8657,5.8653,5.867,5.8665,5.8662,5.8651,5.8664,5.8672,5.8745,5.88,5.8689,5.8694,5.8937,5.8943,5.8948,5.9044,0,0,0,0,0,0,5.8556,5.8572,5.8613,5.8623,5.8636,5.8741,5.8661,5.8657,5.868,5.8671,5.8683,5.8681,5.8661,5.8738,5.875,5.8805,5.8697,5.8932,5.894,5.8947,5.9036,5.9053,5.9067,0,0,0,0,0,5.8551,5.8637,5.8615,5.8629,5.8687,5.8744,5.8751,5.8729,5.8684,5.8724,5.8721,5.8681,5.8793,5.8746,5.8759,5.8816,5.8928,5.8937,5.8946,5.9029,5.9049,5.9067,0,0,0,0,0,0,5.8631,5.8638,5.8614,5.8706,5.8726,5.8732,5.8781,5.8751,5.8782,5.8773,5.8741,5.8745,5.8824,5.8827,5.8775,5.8916,5.8852,5.8864,5.8911,5.8931,5.8946,5.8943,5.8701,0,0,0,0,0,5.866,5.8708,5.871,5.8792,5.8803,5.8791,5.8815,5.8796,5.8814,5.8821,5.8823,5.884,5.8879,5.8905,5.894,5.9036,5.9037,5.9082,5.9097,5.911,5.912,5.9171,5.919,5.898,5.898,5.898,0,0,5.8719,5.8729,5.8761,5.8808,5.8821,5.8869,5.8798,5.8852,5.8887,5.8828,5.8898,5.89,5.8917,5.9002,5.9039,5.9007,5.9179,5.9121,5.9132,5.9135,5.9182,5.9202,5.922,5.8986,5.8985,5.8984,0,0,5.8852,5.8865,5.8934,5.8949,5.897,5.8961,5.8978,5.8989,5.8988,5.9058,5.9015,5.9055,5.9123,5.9137,5.9153,5.9292,5.9256,5.9304,5.9384,5.9434,5.945,5.9465,5.9514,5.9532,5.9314,5.9314,5.9315,0,5.8923,5.8996,5.8973,5.9031,5.9052,5.9003,5.9072,5.9086,5.9117,5.9132,5.9096,5.918,5.9188,5.9276,5.931,5.9324,5.9341,5.9302,5.945,5.9464,5.9478,5.9524,5.9542,5.932,5.9319,5.9319,5.9318,0,5.9081,5.9133,5.9186,5.9219,5.9246,5.9309,5.9294,5.9324,5.9303,5.9297,5.9368,5.9376,5.9413,5.9432,5.9411,5.9516,5.9496,5.9456,5.939,5.9504,5.9547,5.9564,5.9328,5.9326,5.9325,5.9323,0,0,5.9265,5.9286,5.9305,5.932,5.9339,5.9378,5.9437,5.9475,5.9501,5.9524,5.9572,5.9631,5.9594,5.9612,5.9592,5.9636,5.9745,5.959,5.959,5.9618,5.986,5.989,5.9911,5.9721,5.9725,5.9727,5.9859,0,5.9397,5.9503,5.9484,5.9586,5.9632,5.9586,5.9638,5.9655,5.9652,5.9689,5.9684,5.9727,5.9675,5.9686,5.9727,5.9723,5.9793,5.9713,5.9765,5.9767,5.9762,5.9934,5.9965,6.0089,5.9875,5.9878,5.988,0,5.9565,5.9596,5.9704,5.9716,5.9735,5.9782,5.9815,5.9852,5.9869,5.9863,5.9884,5.9856,5.9914,5.9849,5.9927,5.9874,5.9893,5.9895,5.9899,5.9902,5.983,5.9941,6.0128,6.0146,5.9906,5.9904,5.9902,0,5.9688,5.9756,5.9829,5.9843,5.9859,5.9894,5.9902,5.9916,5.9939,5.9967,5.9982,6.0015,6.0033,6.0059,6.004,5.9995,6.0122,6.0055,6.0117,6.0118,6.0145,6.0144,6.0338,6.016,6.0159,6.0159,6.0158,0,5.9836,5.9904,5.9885,5.993,6.0004,5.998,6.0053,6.0055,6.0068,6.0111,6.0073,6.0113,6.0086,6.0124,6.011,6.0177,6.0185,6.0181,6.0176,6.0184,6.0185,6.0196,6.0187,6.0164,6.0163,6.0162,6.0161,0,5.9986,5.9976,6.0053,6.0063,6.0067,6.012,6.0127,6.0168,6.0163,6.0218,6.0229,6.0219,6.0262,6.0246,6.0291,6.0281,6.0367,6.0351,6.0362,6.0357,6.042,6.0414,6.0628,6.0654,6.046,6.0461,6.0463,0,6.0081,6.0132,6.0148,6.0175,6.0187,6.0231,6.0255,6.0234,6.026,6.0284,6.0322,6.0362,6.0393,6.0463,6.0459,6.0493,6.0477,6.055,6.0482,6.0489,6.0478,6.0475,6.048,6.0563,6.0565,6.0567,6.0569,0,6.0251,6.0244,6.0282,6.0319,6.035,6.0377,6.04,6.0424,6.0403,6.0435,6.048,6.0504,6.0551,6.0591,6.0621,6.0627,6.0595,6.059,6.0606,6.0615,6.0619,6.0617,6.0398,6.0585,6.0584,6.0582,6.0582,6.0581,6.0376,6.0419,6.0438,6.0481,6.0497,6.052,6.0559,6.0558,6.0596,6.0634,6.0618,6.0669,6.0684,6.0723,6.0733,6.0772,6.0743,6.0767,6.0773,6.0779,6.0787,6.0614,6.0777,6.0777,6.0776,6.0776,6.0775,0,6.0544,6.0553,6.0594,6.0629,6.0663,6.0631,6.0655,6.0685,6.0731,6.0749,6.0781,6.0832,6.087,6.087,6.0905,6.0936,6.0922,6.0946,6.0943,6.0945,6.081,6.0793,6.0957,6.0957,6.0957,6.0957,6.0957,6.0957,6.0635,6.0706,6.0702,6.078,6.0788,6.084,6.0856,6.0877,6.0891,6.095,6.0983,6.0983,6.0993,6.1029,6.1062,6.1061,6.1075,6.1105,6.1098,6.0972,6.0954,6.0937,6.092,6.1108,6.1109,6.1229,6.123,6.1231]}]]